Location: Most
(50.5133°N, 13.6207°E)
Time: 14:25:40
(UTC+02:00)

ISS - Pass Details

Date: 17 September 2017
Orbit: 402 x 407 km, 51.6° (Epoch: 21 September)

Event Time Altitude Azimuth Distance (km) Brightness Sun altitude
Exits shadow 05:12:17 33° 268° (W) 715 -3.1 -15.0°
Maximum altitude 05:13:31 58° 203° (SSW) 480 -3.8 -14.8°
Drops below altitude 10° 05:16:45 10° 123° (ESE) 1,467 -0.5 -14.3°
Sets 05:18:51 0° 120° (ESE) 2,325 0.6 -14.0°
